Wetbulb
45.98 46.54 47.73 49.36 49.67 51.21 54.24 55.32 54.73 53.99 53.78 54.17 54.43 54.18 54.12 54.08 53.04 49.64 45.96 45.78 44.50 38.80 39.10 41.92 41.55 37.27 36.66 36.17 34.20 34.84 36.82 36.65 35.29 34.47 33.86 32.24 31.28 32.52 31.16 31.36 29.89 29.93 27.89 28.02 29.04 27.26 27.22 37.84 38.42 35.14 36.64 37.42 38.55 38.29
45.59 45.99 47.32 47.76 48.74 50.04 53.16 54.80 54.01 53.24 53.30 53.86 53.88 53.96 53.95 53.91 53.54 51.17 45.20 46.77 46.71 42.25 41.58 43.93 43.98 43.74 41.99 41.57 36.57 35.25 37.04 35.46 37.36 34.59 33.41 32.93 31.43 30.34 31.63 30.45 33.49 31.34 33.35 31.33 32.49 32.19 37.71 37.18 37.70 38.74 39.42 38.26 37.71 38.01
45.26 45.66 46.37 46.55 47.20 48.40 50.49 54.28 53.51 52.92 52.99 53.33 53.50 53.69 53.84 54.05 53.93 52.12 45.99 45.68 45.19 42.39 41.95 42.25 41.64 45.64 46.86 45.64 43.87 39.34 38.11 38.96 38.65 38.73 35.25 34.78 33.05 33.21 30.97 31.70 30.23 32.87 36.14 34.75 34.64 35.89 36.48 38.08 38.73 39.22 39.44 39.06 39.04 38.66
44.79 45.22 45.57 45.94 47.55 48.33 49.93 53.63 53.10 52.92 52.94 53.01 53.31 53.60 53.64 53.86 53.37 52.37 47.21 48.57 46.21 43.62 40.12 41.78 46.11 42.70 45.98 46.20 44.46 43.90 42.31 43.02 42.01 40.43 37.69 37.17 35.49 34.58 31.95 33.55 32.75 34.07 35.54 34.43 33.72 34.95 36.82 37.29 37.92 38.99 38.79 38.54 38.06 37.23
44.57 44.66 45.20 45.67 47.54 48.95 50.82 52.98 52.56 52.29 52.55 52.76 52.93 53.08 53.30 53.33 53.03 51.64 49.69 49.66 49.98 45.81 41.79 42.43 44.31 43.84 45.36 45.33 44.65 44.45 43.25 41.20 39.31 37.83 36.32 35.75 38.12 36.68 34.19 34.10 33.88 35.18 35.03 33.69 32.90 37.06 36.59 36.45 38.18 38.15 37.96 36.90 35.91 35.38
44.23 44.09 45.03 45.48 48.67 49.40 52.70 52.33 51.75 51.55 51.94 51.82 51.89 52.13 52.80 52.81 52.36 49.52 46.12 49.25 49.44 47.95 42.48 38.19 43.81 43.05 45.01 45.21 44.27 43.28 43.19 41.66 39.82 37.88 36.02 37.56 39.33 35.82 29.26 30.49 34.56 35.63 36.96 37.53 36.40 36.88 36.37 36.69 36.65 35.57 35.56 34.41 33.66 33.19
43.93 43.79 44.65 45.16 48.55 51.56 52.49 51.57 51.05 51.31 51.51 51.43 51.55 51.90 52.47 51.85 48.22 43.41 41.05 45.10 49.63 49.80 42.20 36.56 37.89 42.28 43.37 44.92 44.08 44.40 44.68 42.46 40.71 37.22 36.25 37.49 38.04 38.00 32.64 29.85 34.64 34.96 37.37 36.50 36.39 37.29 35.38 34.00 34.53 33.10 34.08 35.86 36.48 35.36
43.50 43.70 44.08 44.22 47.78 52.28 51.58 50.93 50.70 50.90 51.17 51.54 51.69 51.97 50.78 49.83 48.38 44.97 47.29 48.91 48.25 44.86 42.17 33.96 34.98 38.77 42.92 40.63 40.12 43.24 41.69 42.50 41.38 38.88 39.63 37.74 38.39 37.31 31.09 33.11 32.97 34.26 35.18 34.89 34.27 34.13 34.75 33.19 32.48 32.22 32.24 31.78 29.95 31.03
42.79 43.57 43.36 43.69 45.63 51.59 51.18 50.65 50.36 50.59 50.91 51.42 51.12 50.45 47.91 45.06 41.67 44.90 48.26 48.15 46.64 44.02 35.57 35.45 32.69 31.44 41.54 39.89 40.41 39.78 40.78 37.34 40.91 38.04 37.69 37.65 35.13 28.77 32.51 33.40 34.04 35.03 34.44 33.88 31.57 32.77 29.53 29.79 32.21 28.96 30.83 27.16 29.26 30.05
42.57 43.30 42.93 43.25 44.55 49.68 50.71 50.36 50.30 50.72 51.14 50.50 47.53 41.89 38.17 42.63 47.39 45.25 41.43 41.12 37.33 39.00 35.60 33.67 36.35 34.81 37.80 38.36 36.00 36.26 36.79 34.84 32.48 36.47 37.02 32.48 30.39 34.46 34.66 35.50 36.11 35.66 34.86 32.80 30.54 29.28 25.16 23.80 22.66 27.56 28.88 30.12 30.65 31.15
42.33 43.17 42.53 43.17 43.67 46.12 50.27 50.26 50.66 50.87 49.97 45.12 39.68 37.49 42.14 45.58 40.65 36.02 33.69 31.23 34.35 30.88 36.10 33.14 33.52 34.51 38.77 34.43 34.17 34.96 27.56 28.64 22.55 28.33 32.66 26.21 25.62 27.73 30.07 30.98 31.38 31.70 33.87 31.98 32.24 29.54 29.51 30.13 29.21 29.02 29.18 29.32 30.08 29.69
42.17 42.62 42.44 42.99 43.13 44.54 50.09 50.21 50.70 48.66 45.81 42.93 41.58 42.96 41.52 37.12 32.79 29.18 31.72 27.88 30.41 24.42 30.99 34.68 33.78 34.74 35.96 37.38 33.19 32.75 24.59 24.02 25.19 31.49 30.87 20.78 25.42 27.29 28.95 27.49 29.10 32.33 32.96 31.97 30.70 31.10 30.26 30.37 29.50 29.20 29.00 29.13 29.26 28.94
41.97 42.02 42.82 42.65 42.91 43.87 49.62 50.14 50.02 46.96 46.09 42.91 39.20 35.21 36.14 33.01 27.74 25.95 24.67 27.01 18.99 26.28 33.64 33.86 32.88 34.86 33.85 33.89 30.09 28.48 26.74 22.88 30.95 27.43 26.14 23.56 23.72 25.00 26.06 27.98 27.78 28.87 30.43 30.41 30.24 29.50 29.17 26.98 28.28 28.41 28.47 28.52 27.11 26.85
41.77 42.04 42.72 41.71 42.68 42.70 47.93 49.15 47.84 46.28 41.65 34.61 32.34 28.61 30.53 26.93 28.39 23.17 21.39 22.37 26.39 32.34 34.88 35.32 33.23 32.74 34.22 31.67 32.13 27.04 28.43 29.21 24.30 21.86 19.47 19.66 24.04 28.38 28.10 27.55 27.84 27.96 29.00 29.05 28.89 28.18 26.73 26.24 24.99 25.50 27.45 26.99 25.67 23.66
41.66 41.94 41.61 41.19 42.34 41.69 42.06 46.15 47.12 43.16 37.06 32.35 33.01 27.94 27.63 22.27 22.58 17.32 17.92 30.54 32.79 37.02 34.56 31.31 29.47 32.28 29.11 29.31 27.80 25.25 25.32 22.90 24.41 17.67 19.98 20.95 24.61 26.78 27.94 27.89 27.23 26.30 26.23 26.45 25.97 26.32 26.27 26.07 24.55 24.09 23.30 22.21 22.32 22.22
41.50 40.42 39.61 42.03 42.42 42.11 41.26 40.95 40.34 38.77 32.57 31.90 29.93 25.40 27.05 21.37 25.14 26.92 29.25 31.65 33.37 36.22 31.66 30.62 26.44 23.06 25.23 26.14 25.98 21.20 19.11 18.19 19.28 19.07 21.06 23.58 26.21 27.37 28.26 28.00 27.71 27.02 26.19 26.18 25.75 25.81 25.88 25.45 24.95 24.45 22.29 21.06 20.09 19.84
40.38 36.91 41.17 41.37 41.53 41.04 41.18 35.65 34.97 32.09 31.91 31.16 27.66 28.51 21.89 17.23 23.13 28.75 32.47 33.45 34.07 34.37 25.98 26.83 24.21 23.67 25.83 23.73 21.14 21.58 19.12 19.31 18.12 18.29 20.04 24.75 28.56 27.25 27.53 28.67 29.16 28.71 27.83 26.63 25.26 25.02 25.18 25.20 23.23 21.91 21.90 21.80 19.36 19.47
36.49 38.54 41.14 41.51 40.86 39.25 35.83 33.24 32.00 31.78 29.37 30.54 27.81 28.14 28.69 29.10 29.37 31.27 31.16 33.05 33.46 29.59 27.48 24.26 25.93 23.92 21.84 18.86 18.50 20.96 18.43 15.45 17.05 21.85 23.45 25.35 25.93 26.36 26.44 28.76 29.22 27.56 28.23 26.39 20.25 17.08 15.47 16.13 19.86 22.39 18.75 16.06 15.27 15.96
37.21 38.31 40.64 40.48 39.49 35.28 31.76 31.89 32.16 28.70 29.79 29.31 28.66 29.92 27.84 29.61 30.05 30.90 31.52 30.72 31.29 30.99 28.53 26.10 22.63 20.84 20.90 20.88 18.17 14.43 14.00 17.68 25.94 26.97 27.42 27.66 28.14 28.36 27.85 22.42 21.85 20.24 18.89 17.08 20.87 22.22 21.97 21.46 21.62 20.52 19.52 18.92 18.31 17.65
40.34 40.80 40.60 39.98 38.54 32.34 31.02 30.88 32.43 30.13 27.15 29.34 30.79 29.23 29.33 29.03 30.77 32.39 31.28 30.48 30.70 29.66 26.16 23.57 24.37 26.04 26.04 25.43 22.28 21.71 22.00 26.39 27.76 26.73 26.48 26.44 26.21 19.52 20.58 19.96 22.80 21.69 20.65 17.27 15.98 21.38 16.03 19.69 19.20 18.87 18.17 18.46 17.53 16.37
36.94 38.68 38.85 37.42 33.45 32.19 31.47 30.63 29.77 29.82 29.32 27.12 28.67 28.70 27.85 29.97 30.89 31.83 30.07 30.47 30.07 27.67 24.63 27.11 27.36 27.47 24.32 24.98 27.62 27.67 27.07 27.11 26.33 26.37 25.40 20.33 22.86 17.16 15.85 13.57 12.26 20.80 20.20 19.44 19.72 20.18 21.46 18.63 16.36 16.59 15.70 17.00 16.72 16.03
35.38 38.44 35.12 35.68 31.37 31.62 28.54 31.05 28.84 29.33 27.60 26.74 27.47 27.60 26.75 26.59 27.48 29.14 31.49 29.42 28.22 28.01 28.53 28.70 26.12 24.74 23.45 24.74 25.13 25.23 25.74 25.66 24.47 24.48 27.66 26.56 21.73 17.08 16.44 14.88 15.33 10.36 11.04 10.49 12.83 15.30 15.17 15.28 16.24 16.41 15.33 13.71 14.37 12.90
35.55 34.67 29.32 28.80 27.09 25.33 24.69 31.03 24.40 25.51 24.22 24.27 26.57 24.18 23.70 24.47 26.55 29.93 26.04 26.84 26.78 26.95 27.73 26.67 23.37 22.15 23.54 21.96 21.50 20.52 21.07 21.64 20.47 19.93 20.91 20.16 18.93 16.01 14.58 16.61 13.15 10.31 11.02 12.80 14.57 16.38 16.13 20.48 18.88 13.45 13.51 11.02 9.69 9.58
32.94 20.92 20.02 20.00 24.04 21.10 26.68 23.44 25.96 23.64 24.07 22.91 21.83 19.79 20.07 22.65 26.89 25.77 23.38 21.30 23.20 25.24 23.01 21.83 21.94 20.63 19.09 18.57 18.77 18.94 19.17 19.47 18.65 18.62 17.88 17.36 15.96 17.09 18.03 18.02 18.00 14.43 15.90 15.82 16.01 15.04 14.23 14.33 15.62 10.84 8.86 7.02 6.66 7.05
14.36 13.91 13.20 8.84 15.51 19.41 19.19 19.63 20.05 18.51 17.75 19.32 18.59 18.20 18.57 21.95 20.26 18.29 17.60 18.36 20.44 18.52 17.04 16.69 18.40 16.33 13.04 14.55 17.11 17.25 17.90 19.64 18.11 19.55 19.92 22.46 18.76 16.22 14.48 15.39 15.61 15.55 16.89 15.30 13.59 12.38 10.79 10.25 9.45 9.41 10.26 7.56 5.99 4.23
7.84 13.91 8.48 4.65 9.58 11.12 16.02 16.11 17.99 17.39 18.54 17.11 16.38 17.56 18.55 19.52 17.50 15.75 15.47 15.50 14.87 12.66 9.39 7.94 11.22 12.46 15.04 16.28 16.70 16.55 15.77 16.42 19.13 18.01 16.74 19.48 18.39 13.27 10.74 12.74 12.13 12.47 14.58 14.44 13.03 11.61 10.88 10.66 10.63 7.91 7.50 5.88 12.44 3.50
6.29 12.53 19.62 22.64 17.38 16.50 14.45 17.53 19.49 18.73 16.23 15.92 16.83 16.23 15.62 13.20 12.84 14.26 13.56 14.38 13.94 10.99 12.28 11.60 10.62 11.22 11.69 13.29 16.12 15.86 15.37 12.15 12.82 13.99 16.45 16.55 16.41 17.22 14.67 13.74 11.48 13.43 14.79 14.35 14.08 13.11 11.53 11.04 8.91 7.33 5.90 2.69 1.75 1.80
15.37 15.19 9.59 17.15 12.22 9.28 7.83 7.82 6.87 9.39 12.70 16.25 16.62 11.86 13.54 14.90 14.75 10.99 10.58 11.47 9.97 7.11 8.37 11.61 11.82 10.30 10.09 9.59 10.38 13.83 13.18 13.29 13.81 14.57 15.91 15.32 14.57 13.88 15.42 15.82 16.12 19.76 14.41 12.84 11.93 10.96 10.89 9.59 8.23 6.95 5.31 2.95 1.19 1.28
12.33 16.35 15.76 17.76 11.58 6.01 5.13 7.56 8.50 12.17 17.65 15.62 12.54 10.13 9.46 9.88 5.51 6.63 10.04 9.65 7.78 8.29 8.66 9.14 8.67 8.32 10.72 11.41 11.81 12.38 11.75 10.72 8.74 6.91 7.81 6.66 7.29 9.75 9.99 12.03 10.88 10.86 11.47 12.26 18.07 14.19 9.27 8.79 7.27 6.68 2.82 2.97 2.59 0.34
17.24 11.71 10.84 12.65 12.64 13.29 9.41 8.72 5.41 4.52 11.49 10.15 11.11 7.93 6.96 4.70 4.21 6.37 5.80 2.26 4.16 4.07 2.46 2.51 4.58 4.57 4.09 5.14 6.65 9.41 9.53 8.11 9.12 8.82 7.61 6.50 9.19 9.94 9.11 10.18 10.04 8.69 8.92 9.61 8.21 5.65 14.73 6.25 5.55 1.10 -0.05 0.10 0.96 1.33
13.20 8.37 4.65 5.83 5.26 0.91 1.86 10.70 9.81 12.49 4.39 -0.05 0.57 3.05 1.37 -2.65 3.34 4.28 0.17 0.49 -0.04 -1.45 2.10 0.69 1.20 0.70 5.03 4.00 0.28 3.91 5.21 8.44 7.39 9.08 10.74 12.73 11.87 10.32 8.92 9.66 9.33 8.33 6.87 5.27 3.86 2.91 -0.71 -1.87 -4.33 -5.70 -2.48 -4.50 -2.78 1.59
19.41 16.47 14.18 9.83 6.41 4.58 9.99 7.98 0.92 -0.90 0.60 0.46 -2.18 -1.00 1.01 2.17 0.96 1.03 3.16 -2.24 -1.13 1.23 6.60 2.36 2.80 3.84 5.88 7.14 8.71 9.79 16.40 11.90 12.08 13.08 13.51 12.67 11.39 11.37 11.64 10.35 7.27 7.80 7.08 5.47 3.21 1.91 -1.24 -4.12 -3.34 -2.93 0.22 -2.43 -2.50 -2.19
10.53 9.44 7.86 9.40 4.14 3.62 7.08 6.82 4.07 -0.64 -1.23 -2.41 0.63 3.95 1.95 7.25 4.49 1.37 6.32 4.98 2.30 3.62 6.27 5.89 7.82 10.33 10.59 10.84 11.55 13.52 14.35 12.06 16.73 20.11 20.59 19.36 18.02 15.11 10.20 8.49 7.55 7.29 6.68 5.78 3.88 2.22 0.32 -3.75 -4.25 -1.75 -1.45 -3.87 -4.39 -3.37
MSLP
1004.59 1003.80 1002.64 1001.65 1001.19 1000.41 999.90 1000.02 1000.44 1000.89 1001.27 1001.69 1001.98 1002.22 1002.41 1002.48 1002.55 1002.72 1002.93 1002.97 1003.06 1003.64 1004.27 1004.03 1003.85 1003.96 1004.30 1004.65 1005.36 1006.09 1006.47 1006.60 1006.97 1007.27 1007.90 1008.32 1008.58 1008.65 1008.71 1009.01 1009.05 1009.25 1010.15 1010.93 1011.11 1010.71 1009.59 1008.51 1008.70 1009.09 1009.83 1010.39 1010.73 1011.27
1004.24 1003.29 1002.26 1001.59 1000.91 1000.35 999.50 999.46 999.95 1000.29 1000.78 1001.34 1001.60 1001.87 1002.10 1002.17 1002.22 1002.44 1002.80 1002.81 1002.87 1003.22 1004.58 1004.41 1004.24 1004.12 1004.02 1004.12 1004.88 1005.77 1005.89 1005.89 1006.11 1006.95 1008.21 1008.59 1009.09 1009.34 1009.15 1009.42 1009.22 1009.50 1009.29 1009.73 1009.93 1009.66 1009.11 1009.03 1009.08 1009.36 1009.85 1010.53 1011.25 1011.53
1003.74 1002.99 1001.93 1001.21 1000.48 999.81 999.53 998.76 999.41 999.75 1000.40 1000.93 1001.33 1001.51 1001.81 1001.94 1001.99 1002.14 1002.43 1002.69 1002.85 1003.64 1004.84 1004.66 1004.59 1004.42 1004.17 1004.36 1004.25 1004.88 1005.69 1005.74 1006.07 1006.33 1007.62 1008.52 1008.88 1009.25 1009.59 1009.55 1009.60 1009.44 1009.36 1009.67 1010.04 1009.97 1009.80 1009.70 1009.86 1010.09 1010.46 1010.98 1011.43 1011.74
1003.15 1002.25 1001.18 1000.24 999.46 999.07 998.76 998.04 998.77 999.34 1000.00 1000.57 1001.08 1001.29 1001.63 1001.79 1001.90 1001.89 1002.21 1002.46 1002.68 1003.15 1004.09 1005.12 1004.68 1004.83 1004.62 1004.35 1004.20 1004.29 1004.67 1005.45 1006.07 1006.62 1007.53 1008.26 1008.82 1009.20 1009.64 1009.46 1009.67 1009.61 1009.74 1009.98 1010.33 1010.47 1010.46 1010.48 1010.39 1010.56 1011.10 1011.53 1011.94 1012.25
1002.61 1001.62 1000.33 999.16 998.33 997.47 997.55 997.48 998.25 998.93 999.58 1000.21 1000.78 1001.16 1001.43 1001.63 1001.81 1001.96 1002.20 1002.51 1002.47 1003.08 1004.15 1005.12 1005.19 1005.39 1005.04 1004.65 1004.72 1004.89 1005.16 1005.71 1006.58 1007.47 1007.99 1008.75 1008.77 1009.23 1010.06 1010.10 1009.90 1009.52 1009.37 1009.74 1009.59 1009.45 1009.98 1010.38 1010.77 1011.06 1011.64 1012.20 1012.73 1013.03
1002.01 1000.89 999.58 998.23 996.58 996.00 996.37 996.86 997.74 998.53 999.33 999.99 1000.58 1001.12 1001.31 1001.47 1001.80 1001.90 1002.40 1002.57 1002.54 1002.65 1003.52 1005.38 1005.93 1005.87 1005.62 1005.37 1005.50 1005.90 1006.10 1006.39 1006.94 1007.58 1008.47 1008.67 1008.64 1008.95 1010.03 1010.23 1009.32 1009.24 1009.28 1009.53 1009.67 1009.95 1010.44 1010.82 1011.43 1011.85 1012.54 1013.20 1013.59 1013.82
1001.41 1000.63 999.45 997.51 995.70 995.37 995.58 996.42 997.31 998.36 999.19 999.79 1000.48 1001.02 1001.30 1001.57 1002.05 1002.57 1002.77 1002.66 1002.45 1002.38 1003.40 1005.81 1006.26 1006.17 1006.01 1005.85 1006.27 1006.43 1006.46 1007.00 1007.25 1008.13 1008.59 1008.59 1008.75 1008.83 1009.68 1009.88 1009.07 1009.22 1009.20 1009.75 1010.05 1010.55 1011.65 1011.95 1012.50 1012.97 1013.42 1013.88 1014.06 1014.32
1001.15 1000.27 999.12 997.82 995.72 994.67 995.04 996.11 997.17 998.21 999.01 999.74 1000.45 1001.02 1001.34 1001.77 1002.62 1002.92 1002.77 1002.48 1002.25 1002.61 1003.51 1005.60 1006.66 1006.62 1006.40 1006.63 1007.05 1007.09 1007.23 1007.48 1008.04 1008.56 1008.76 1008.90 1009.00 1009.20 1009.59 1009.25 1009.46 1009.57 1009.88 1010.34 1010.84 1011.07 1011.65 1012.41 1013.07 1013.51 1013.81 1014.18 1014.38 1014.50
1000.99 1000.02 998.93 997.48 995.74 994.23 994.74 995.81 997.06 997.96 998.81 999.66 1000.54 1001.04 1001.61 1002.15 1002.82 1002.92 1002.71 1002.55 1002.60 1003.22 1004.54 1005.87 1006.66 1007.01 1006.73 1007.12 1007.42 1007.67 1007.79 1008.35 1008.77 1008.82 1008.96 1009.10 1009.43 1009.35 1008.62 1008.96 1009.37 1009.77 1010.13 1010.97 1011.81 1012.26 1012.67 1013.18 1013.69 1013.94 1014.24 1014.39 1014.50 1014.43
1000.78 1000.06 999.11 997.58 995.85 994.63 994.59 995.62 996.95 997.68 998.59 999.67 1000.59 1001.32 1002.45 1002.64 1002.73 1002.86 1003.39 1003.35 1003.66 1004.41 1005.16 1005.94 1006.38 1007.11 1007.24 1007.55 1008.08 1008.34 1008.56 1009.16 1009.44 1009.57 1009.51 1009.73 1009.30 1008.70 1008.65 1008.68 1008.88 1009.56 1010.15 1010.98 1011.92 1012.84 1012.87 1013.22 1013.86 1013.76 1013.91 1014.05 1014.22 1014.38
1000.89 1000.14 999.42 998.12 996.59 995.45 994.75 995.82 996.86 997.57 998.67 999.22 1000.68 1002.19 1002.87 1002.84 1003.16 1004.09 1004.91 1005.01 1005.52 1005.79 1005.66 1006.12 1006.42 1007.01 1007.54 1007.76 1008.43 1008.94 1009.32 1009.75 1010.00 1010.24 1010.26 1010.29 1009.77 1009.12 1008.95 1009.06 1009.09 1009.61 1010.27 1010.84 1010.95 1011.38 1011.99 1012.41 1012.99 1013.50 1013.79 1013.90 1014.05 1014.21
1001.04 1000.47 999.66 998.71 997.46 996.17 995.27 995.91 996.77 997.05 997.68 998.59 1000.02 1001.59 1002.68 1003.35 1004.38 1004.97 1005.60 1006.15 1006.04 1005.79 1005.72 1005.82 1006.34 1006.93 1007.88 1007.87 1008.67 1009.47 1009.98 1010.40 1010.74 1010.83 1011.14 1010.86 1009.77 1009.40 1009.41 1009.55 1009.69 1010.03 1010.52 1010.89 1011.09 1011.52 1012.02 1012.45 1012.84 1013.21 1013.48 1013.72 1013.85 1014.00
1000.97 1000.53 999.77 999.10 998.20 996.76 995.16 995.65 996.67 997.39 997.81 998.83 1000.25 1001.81 1002.63 1004.27 1005.02 1005.42 1005.82 1005.86 1005.87 1005.43 1005.14 1005.42 1006.27 1007.11 1008.10 1008.36 1009.34 1009.83 1010.52 1011.11 1011.09 1011.59 1011.52 1010.36 1009.79 1009.82 1009.90 1009.97 1010.16 1010.42 1010.70 1011.04 1011.46 1011.87 1012.26 1012.54 1012.75 1012.96 1013.34 1013.56 1013.80 1014.08
1000.90 1000.55 1000.07 999.62 998.75 997.36 995.34 995.91 996.87 997.86 998.32 999.78 1000.79 1002.22 1002.68 1003.69 1003.79 1003.98 1004.25 1004.14 1003.87 1003.91 1004.41 1005.13 1006.24 1006.91 1007.90 1008.75 1009.41 1010.10 1010.92 1011.21 1011.82 1012.14 1011.17 1009.89 1009.49 1009.63 1009.86 1010.00 1010.21 1010.64 1010.90 1011.24 1011.58 1011.85 1012.11 1012.42 1012.78 1013.03 1013.30 1013.58 1013.84 1014.12
1001.16 1000.80 1000.46 1000.01 999.24 998.73 997.74 996.76 997.29 998.50 999.39 1000.15 1000.64 1001.45 1002.37 1002.98 1003.62 1004.09 1004.07 1003.94 1003.73 1003.67 1004.20 1005.62 1006.66 1007.09 1008.19 1009.09 1009.53 1010.56 1011.35 1011.45 1011.13 1010.61 1009.55 1008.65 1008.85 1009.44 1009.93 1010.12 1010.31 1010.58 1010.91 1011.25 1011.56 1011.93 1012.22 1012.54 1012.91 1013.17 1013.34 1013.53 1013.79 1014.09
1001.21 1001.11 1000.94 1000.22 999.50 999.05 998.92 998.35 998.64 999.39 1000.22 1000.56 1001.03 1001.90 1002.52 1003.15 1004.07 1004.14 1003.94 1003.90 1003.68 1003.89 1004.64 1005.39 1006.90 1007.82 1008.52 1008.79 1009.74 1009.91 1010.60 1010.49 1009.71 1009.27 1008.60 1008.59 1009.13 1009.61 1009.76 1009.90 1010.11 1010.42 1010.84 1011.22 1011.59 1011.95 1012.35 1012.78 1013.07 1013.23 1013.37 1013.52 1013.74 1014.02
1001.35 1001.46 1001.03 1000.65 1000.33 999.94 999.68 999.74 999.84 1000.04 1000.47 1000.78 1001.50 1001.52 1002.04 1002.65 1003.15 1003.56 1003.54 1003.71 1003.69 1004.17 1005.40 1006.11 1007.03 1007.87 1008.54 1009.02 1009.61 1009.64 1009.51 1009.19 1008.83 1009.03 1008.84 1008.79 1009.15 1009.61 1009.90 1010.21 1010.53 1010.87 1011.28 1011.65 1012.01 1012.33 1012.57 1012.74 1012.90 1013.20 1013.57 1013.70 1013.84 1014.15
1001.55 1001.54 1001.24 1001.01 1000.73 1000.47 1000.44 1000.37 1000.26 1000.35 1000.73 1001.15 1001.51 1001.87 1002.28 1002.46 1002.76 1003.20 1003.38 1003.53 1003.92 1004.99 1005.72 1006.56 1006.96 1008.00 1008.36 1008.78 1008.92 1008.72 1008.74 1008.86 1008.95 1008.87 1009.17 1009.41 1009.71 1010.08 1010.29 1010.34 1010.52 1010.80 1011.11 1011.53 1011.93 1012.35 1012.68 1012.92 1013.30 1013.62 1013.79 1014.09 1014.52 1014.68
1001.72 1001.63 1001.45 1001.30 1001.20 1001.06 1001.06 1001.03 1000.96 1000.87 1001.14 1001.45 1001.76 1002.07 1002.39 1002.74 1002.91 1002.98 1003.23 1003.77 1004.18 1004.94 1005.87 1006.79 1007.44 1007.76 1008.01 1008.09 1008.38 1008.72 1009.05 1008.75 1009.04 1009.31 1009.54 1009.75 1009.91 1010.10 1010.35 1010.67 1011.10 1011.48 1011.82 1012.13 1012.46 1012.78 1013.08 1013.31 1013.57 1013.75 1014.02 1014.31 1014.72 1015.03
1001.75 1001.70 1001.62 1001.47 1001.43 1001.51 1001.37 1001.45 1001.37 1001.35 1001.61 1001.84 1001.95 1002.48 1002.75 1002.97 1003.14 1003.25 1003.90 1004.39 1004.76 1005.40 1006.39 1007.03 1007.27 1007.42 1007.61 1007.94 1008.36 1008.65 1008.84 1008.84 1009.01 1009.65 1010.05 1010.20 1010.38 1010.74 1011.23 1011.61 1011.93 1012.19 1012.54 1012.91 1013.07 1013.30 1013.56 1013.98 1014.17 1014.26 1014.48 1014.75 1015.06 1015.51
1002.24 1002.31 1002.13 1002.00 1001.98 1002.00 1001.88 1001.85 1001.83 1001.97 1001.99 1002.21 1002.48 1002.64 1003.14 1003.36 1003.47 1003.74 1004.54 1004.80 1005.27 1005.96 1006.80 1007.20 1007.49 1007.54 1007.83 1008.25 1008.40 1008.64 1009.10 1009.32 1009.77 1009.96 1010.43 1011.16 1011.32 1011.65 1012.07 1012.42 1012.72 1012.96 1013.11 1013.39 1013.62 1013.83 1014.05 1014.46 1014.79 1014.94 1015.29 1015.65 1015.86 1016.05
1002.86 1002.70 1002.71 1002.49 1002.52 1002.44 1002.45 1002.52 1002.46 1002.47 1002.53 1002.72 1002.87 1002.99 1003.49 1003.91 1003.94 1004.20 1004.53 1005.23 1005.96 1006.30 1006.91 1007.46 1007.99 1008.27 1008.53 1008.87 1009.10 1009.25 1009.50 1009.70 1010.07 1010.35 1010.57 1011.00 1011.89 1012.51 1012.96 1013.13 1013.37 1013.92 1013.84 1014.00 1013.98 1014.26 1014.70 1015.09 1015.28 1015.63 1015.98 1016.38 1016.42 1016.44
1003.06 1003.20 1003.34 1003.36 1003.43 1003.28 1003.60 1003.07 1003.17 1003.22 1003.16 1003.37 1003.42 1003.77 1004.15 1004.28 1004.42 1004.51 1005.19 1005.82 1006.69 1007.26 1007.67 1008.29 1008.78 1008.88 1009.02 1009.46 1009.74 1010.08 1010.25 1010.41 1010.79 1010.97 1011.14 1011.54 1012.18 1012.78 1013.15 1013.42 1013.56 1013.94 1014.41 1014.57 1014.52 1014.75 1015.13 1015.38 1015.75 1016.27 1016.52 1016.84 1016.99 1017.16
1003.67 1004.21 1004.67 1004.89 1004.74 1004.71 1004.31 1004.04 1003.96 1004.01 1003.94 1004.08 1004.40 1005.01 1005.37 1005.31 1005.05 1005.36 1006.28 1007.09 1007.83 1008.24 1008.83 1009.39 1009.54 1009.83 1010.03 1010.19 1010.76 1011.22 1011.26 1011.23 1011.45 1011.72 1011.93 1012.31 1012.93 1013.39 1013.56 1013.81 1013.94 1014.12 1014.15 1014.71 1015.05 1015.52 1015.88 1016.18 1016.50 1016.89 1017.17 1017.48 1017.70 1017.89
1005.00 1006.30 1006.61 1006.39 1005.93 1005.72 1005.52 1005.29 1005.11 1005.00 1005.28 1005.44 1005.76 1006.19 1006.49 1006.27 1006.59 1007.19 1007.89 1008.51 1008.91 1009.50 1009.96 1010.01 1009.97 1010.13 1010.96 1011.50 1011.86 1012.18 1012.29 1012.25 1012.41 1012.59 1012.70 1012.50 1013.04 1013.69 1014.14 1014.38 1014.65 1014.77 1014.81 1015.04 1015.68 1016.15 1016.66 1016.88 1017.13 1017.40 1017.60 1017.84 1018.03 1018.19
1006.62 1006.87 1007.21 1007.20 1006.96 1007.01 1006.78 1006.51 1006.20 1006.19 1006.16 1006.40 1006.91 1007.22 1007.22 1007.31 1007.84 1008.67 1009.30 1009.96 1010.69 1011.39 1011.81 1012.02 1012.00 1012.06 1012.27 1012.24 1012.49 1012.79 1013.00 1012.90 1012.65 1012.94 1013.41 1013.22 1013.39 1013.81 1014.44 1014.77 1015.17 1015.53 1015.39 1015.47 1015.95 1016.46 1016.93 1017.27 1017.52 1017.87 1018.16 1018.24 1018.03 1018.41
1007.56 1007.53 1007.21 1006.97 1007.20 1007.56 1007.82 1007.62 1007.31 1007.17 1007.35 1007.42 1007.67 1007.99 1008.26 1008.71 1009.37 1010.29 1010.82 1011.28 1011.76 1012.43 1012.65 1012.80 1012.69 1012.61 1012.88 1013.01 1013.11 1013.25 1013.33 1013.24 1013.23 1013.59 1013.79 1013.86 1013.95 1013.98 1014.34 1014.78 1015.33 1015.70 1015.74 1015.86 1016.19 1016.55 1017.00 1017.38 1017.74 1018.02 1018.25 1018.30 1018.41 1018.48
1007.17 1007.53 1007.61 1007.72 1008.08 1008.74 1008.76 1008.75 1008.60 1008.62 1008.14 1008.28 1008.54 1009.07 1009.47 1009.81 1010.80 1011.69 1012.16 1012.66 1013.00 1013.34 1013.52 1013.56 1013.47 1013.38 1013.43 1013.51 1013.46 1013.65 1013.90 1014.01 1014.10 1014.22 1014.32 1014.65 1014.92 1015.00 1014.98 1015.14 1015.54 1015.85 1016.10 1016.34 1016.64 1016.91 1017.25 1017.58 1017.78 1017.92 1018.11 1018.36 1018.39 1018.35
1007.34 1007.55 1007.77 1008.55 1009.06 1009.45 1009.59 1009.38 1009.41 1009.01 1008.71 1009.20 1009.70 1010.27 1010.92 1011.62 1012.59 1013.01 1013.45 1013.74 1014.04 1014.25 1014.38 1014.34 1014.39 1014.15 1014.18 1014.22 1014.24 1014.29 1014.46 1014.58 1014.80 1014.99 1015.18 1015.54 1015.99 1016.41 1016.24 1016.18 1016.36 1016.47 1016.55 1016.68 1016.71 1016.97 1017.38 1017.56 1017.68 1017.91 1018.26 1018.42 1018.35 1018.12
1007.45 1007.67 1008.48 1009.07 1009.64 1010.01 1009.70 1009.69 1009.63 1009.73 1009.68 1010.09 1010.50 1011.40 1012.18 1013.18 1013.84 1014.12 1014.23 1014.42 1014.54 1014.58 1014.68 1014.66 1014.66 1014.78 1014.77 1014.63 1014.83 1015.00 1015.00 1015.03 1014.96 1015.17 1015.23 1015.45 1015.91 1016.39 1016.55 1016.57 1016.76 1016.95 1017.10 1017.35 1017.56 1017.69 1017.49 1017.90 1018.11 1018.33 1018.47 1018.41 1018.22 1017.82
1007.45 1007.97 1008.90 1009.23 1009.93 1010.14 1010.43 1010.10 1010.00 1010.15 1010.71 1011.37 1011.54 1012.12 1013.06 1013.69 1014.14 1014.43 1014.62 1014.81 1014.86 1014.91 1014.99 1015.13 1015.19 1015.19 1015.00 1015.04 1015.05 1015.26 1015.40 1015.33 1015.07 1014.94 1014.97 1015.19 1015.73 1016.22 1016.53 1016.76 1017.04 1017.30 1017.47 1017.66 1017.93 1018.21 1018.31 1018.47 1018.61 1018.64 1018.53 1018.44 1018.14 1017.82
1007.52 1008.01 1008.75 1009.78 1010.40 1010.55 1010.43 1010.63 1011.08 1011.68 1012.13 1012.52 1013.21 1013.28 1013.55 1013.94 1014.53 1014.88 1014.92 1014.88 1015.01 1014.95 1014.82 1014.86 1014.92 1015.05 1014.76 1014.82 1014.89 1014.81 1014.68 1015.20 1015.18 1015.16 1015.25 1015.58 1015.95 1016.33 1016.69 1017.01 1017.23 1017.37 1017.55 1017.85 1018.18 1018.44 1018.48 1018.52 1018.56 1018.59 1018.53 1018.27 1017.91 1017.58
1008.02 1008.41 1009.02 1009.58 1010.32 1010.58 1010.69 1010.89 1011.73 1012.58 1013.08 1013.45 1013.76 1013.71 1013.75 1014.04 1014.68 1015.20 1015.04 1014.94 1014.92 1014.80 1014.75 1014.78 1014.81 1014.79 1014.90 1014.98 1015.10 1015.21 1015.36 1015.33 1015.15 1015.20 1015.37 1015.67 1016.05 1016.49 1016.82 1017.08 1017.31 1017.49 1017.68 1017.92 1018.26 1018.40 1018.46 1018.52 1018.59 1018.55 1018.32 1018.10 1017.83 1017.46
Wind_Speed
28 29 28 24 21 22 19 16 15 13 11 11 11 9 8 7 5 3 1 2 2 4 1 3 3 4 3 2 5 6 5 1 3 3 3 3 3 4 3 3 5 6 7 4 3 2 7 2 4 6 4 3 6 5
29 30 27 25 24 24 19 15 15 13 12 12 11 10 9 8 6 4 1 0 0 5 3 1 2 1 2 2 6 2 1 3 5 6 1 3 3 2 3 3 3 1 5 5 7 5 0 1 2 4 4 6 5 5
29 30 29 26 27 26 25 18 17 14 13 13 12 11 9 7 7 5 2 1 2 4 3 3 3 4 4 3 2 5 2 3 1 2 5 3 3 4 5 4 2 1 2 3 3 2 2 4 4 4 4 5 4 3
30 31 32 30 28 25 24 19 17 16 15 14 13 11 9 8 7 4 2 1 2 3 5 1 2 4 7 5 0 1 6 5 5 3 3 3 3 2 3 2 3 3 4 4 1 2 2 1 2 6 5 5 5 4
30 32 35 34 35 24 21 21 19 17 15 14 12 11 9 9 6 4 3 1 1 2 4 2 1 5 5 5 8 6 6 5 3 3 3 2 2 4 2 2 2 4 6 5 6 7 5 4 5 4 6 5 6 3
30 33 36 36 33 20 22 22 20 17 16 14 12 10 9 9 7 0 2 0 2 1 5 3 2 4 6 6 9 8 4 4 3 4 2 2 1 3 4 4 4 4 3 2 2 4 3 7 7 3 6 5 3 4
30 32 36 36 34 20 23 23 22 19 17 15 13 10 9 9 3 2 3 1 2 1 4 4 2 3 3 4 3 3 4 3 3 2 2 3 2 3 3 4 3 4 7 5 6 8 5 2 5 5 6 5 3 1
30 31 34 37 34 22 23 24 23 20 19 17 14 11 14 18 10 2 3 3 1 4 3 5 2 1 3 2 2 3 2 2 4 2 1 1 1 2 3 4 3 4 6 7 6 6 5 8 6 4 3 3 1 1
28 29 32 36 33 20 24 25 24 22 21 19 18 19 5 3 3 2 2 4 2 3 5 3 6 4 1 2 2 2 2 3 1 1 1 1 1 5 5 5 6 6 6 9 6 6 5 4 5 4 3 2 3 3
25 27 29 35 33 9 25 25 24 24 25 25 5 3 2 0 5 3 6 3 5 3 4 3 2 4 2 1 2 2 2 2 2 0 1 2 4 2 5 5 7 8 8 11 7 2 2 2 3 4 4 2 4 4
23 26 27 31 30 27 23 25 24 28 25 3 4 3 1 2 3 4 2 3 0 2 2 3 3 6 2 3 3 1 2 1 3 3 2 3 4 4 2 4 4 6 8 4 5 6 6 6 4 2 2 3 4 4
21 23 23 27 28 30 20 24 24 11 4 8 9 6 3 3 3 5 3 1 3 7 2 5 4 4 2 2 4 2 3 3 2 1 1 4 5 2 2 3 4 7 8 7 5 8 6 5 5 3 2 3 4 4
19 20 21 23 26 27 16 26 16 21 19 5 5 4 4 1 4 9 10 5 3 5 5 5 6 5 3 3 4 3 3 4 2 1 4 6 3 3 4 4 6 6 7 7 6 4 4 3 3 3 3 4 3 3
17 17 21 19 23 26 6 25 25 9 5 4 5 7 5 5 6 6 6 5 4 5 10 8 4 4 3 4 3 4 1 3 4 4 9 4 7 7 7 4 6 7 7 7 6 4 3 3 3 4 5 3 3 4
15 14 15 11 19 18 21 8 16 5 3 3 4 6 5 3 2 2 4 3 1 9 8 6 4 4 3 4 2 4 5 5 7 8 5 4 7 8 7 5 6 7 7 5 4 4 5 4 3 4 4 4 5 3
12 7 6 16 14 16 14 11 6 3 2 2 3 4 4 5 3 4 3 4 0 8 3 4 4 4 2 5 4 7 8 8 6 5 4 5 7 7 7 6 6 4 4 3 3 3 4 5 5 4 2 2 3 3
5 1 11 8 11 11 10 3 2 3 2 3 1 2 4 2 4 3 4 4 2 7 3 3 5 5 3 3 3 4 7 5 4 3 2 4 10 7 6 5 5 5 4 4 3 4 2 2 2 1 3 2 2 3
1 3 9 11 9 3 3 3 2 2 2 2 3 3 2 2 6 5 3 4 4 3 3 3 5 3 5 6 4 5 3 2 2 3 3 3 4 4 4 3 1 0 2 2 1 3 3 3 2 1 1 1 4 4
2 1 8 12 8 2 3 3 2 2 3 2 3 2 2 3 2 5 4 4 5 4 6 2 3 3 3 3 3 2 2 2 4 3 3 3 3 3 3 3 3 2 1 1 2 1 2 2 2 1 2 3 4 3
6 7 9 9 5 2 2 2 1 1 1 1 2 3 2 3 2 6 6 3 3 4 3 2 1 3 3 1 2 3 2 2 4 4 3 3 3 3 2 1 2 1 3 3 2 4 3 4 3 4 3 3 4 4
7 4 7 5 2 2 2 2 2 2 1 2 1 2 3 2 4 5 4 1 3 2 3 2 3 2 3 3 3 3 4 3 2 3 3 1 2 3 2 2 1 2 2 2 3 2 4 4 3 3 4 4 4 3
1 6 2 3 2 3 2 3 2 2 2 1 2 2 3 2 3 2 3 3 2 2 3 3 2 2 2 4 4 5 4 5 5 3 4 3 2 1 1 1 2 2 3 1 2 4 4 3 4 4 4 3 4 2
3 3 2 4 3 4 2 2 3 4 2 2 1 3 3 2 1 1 3 2 3 3 2 3 2 1 6 5 6 6 6 4 4 3 3 3 4 2 2 2 2 4 3 3 2 5 5 7 7 5 3 3 2 3
5 4 4 3 4 3 3 4 2 2 3 3 3 3 3 2 3 3 2 2 2 1 2 2 2 4 3 5 4 3 4 3 4 4 3 4 3 3 3 3 3 3 3 4 5 5 4 4 7 4 3 3 3 2
7 7 5 5 4 3 4 3 3 3 3 3 2 2 2 2 2 2 2 1 2 2 3 4 4 4 4 3 3 3 5 3 3 4 2 2 5 4 4 4 4 4 2 6 5 5 4 3 3 3 3 1 2 2
4 3 4 3 3 3 1 2 3 3 2 3 3 1 1 2 3 1 1 1 2 1 0 1 2 3 4 2 3 2 1 2 1 3 2 2 3 4 4 4 3 2 3 3 6 5 4 3 3 3 2 3 7 4
1 3 1 1 2 3 3 3 3 2 2 2 2 1 2 3 2 1 0 2 2 1 1 1 1 2 3 3 3 3 3 3 4 4 4 4 4 3 3 4 4 2 2 4 4 4 4 3 2 1 0 1 2 3
3 4 5 3 2 1 4 2 2 3 2 2 3 1 5 5 2 2 2 2 2 2 2 2 2 2 2 2 2 4 4 4 5 6 7 7 6 5 5 5 6 13 5 5 4 3 3 3 2 1 0 2 3 3
2 2 4 4 1 1 3 5 5 3 1 3 4 3 3 2 1 1 2 1 0 2 2 3 2 2 3 4 4 4 3 2 4 4 6 3 2 2 3 4 4 3 3 4 6 3 5 3 2 1 1 2 3 4
3 2 4 3 5 5 4 3 2 2 1 3 3 3 2 2 1 1 1 2 1 2 2 2 3 3 2 3 3 4 3 2 1 4 4 3 4 4 3 3 4 3 3 3 3 3 5 5 4 4 3 3 3 3
2 3 4 2 4 3 2 2 3 3 3 3 3 4 2 2 1 1 2 1 1 2 3 3 2 1 4 3 3 3 2 3 1 3 4 5 6 5 4 3 3 2 2 3 3 2 2 2 1 2 3 5 7 8
3 4 4 3 2 3 1 2 1 3 3 3 3 2 2 3 2 3 3 2 2 2 1 4 4 2 2 2 1 1 7 2 2 3 6 5 5 4 4 3 2 2 3 3 2 1 0 1 2 3 5 6 7 8
2 3 2 3 2 1 1 4 4 2 4 3 2 1 0 1 2 1 1 1 1 2 2 2 3 3 5 5 5 5 5 1 1 6 11 12 12 9 4 2 2 2 2 0 0 1 2 2 3 4 6 6 8 9
Wind_Direction
330 325 324 325 291 291 269 201 194 194 201 208 210 200 212 220 202 171 193 203 146 103 355 28 0 127 92 106 143 177 97 306 51 82 130 180 134 204 97 155 178 157 133 170 115 149 267 166 69 161 169 68 128 127
328 327 323 325 317 302 288 193 195 189 194 198 201 197 201 214 210 177 155 195 231 83 146 19 70 45 55 143 127 20 155 156 168 93 82 112 116 117 148 211 20 199 165 181 173 214 240 10 137 107 122 132 169 163
328 325 323 321 314 309 300 193 193 186 189 189 195 197 193 203 205 196 154 151 72 103 34 53 2 335 38 11 210 118 279 157 108 134 151 138 124 133 156 224 129 276 146 125 115 220 117 97 82 119 131 134 131 91
330 327 326 319 312 294 285 188 188 180 183 185 190 184 189 187 181 167 129 127 95 113 112 92 343 22 319 346 83 120 130 85 101 78 91 121 123 189 183 145 149 191 131 143 108 85 75 272 153 148 117 95 95 76
330 329 328 320 310 270 256 181 178 172 177 180 178 173 188 179 164 115 104 62 74 116 121 108 117 360 346 44 55 56 90 96 90 70 70 125 106 114 41 74 262 189 179 164 214 186 151 184 164 121 110 92 68 66
332 333 329 323 316 242 204 175 169 166 168 161 162 177 185 164 150 128 100 65 22 80 103 115 344 22 14 54 60 47 33 61 78 106 124 119 139 110 131 192 234 196 168 197 185 131 79 105 88 54 108 109 85 96
335 333 331 334 327 222 180 170 161 162 160 156 161 174 165 127 78 84 187 150 314 96 94 98 80 3 353 27 37 28 33 58 80 97 62 127 130 106 124 189 227 199 169 144 127 112 66 146 153 97 115 140 125 95
335 336 335 335 328 187 170 163 159 161 158 157 156 144 111 102 107 36 331 347 342 96 79 107 92 83 4 61 84 348 58 50 28 108 123 117 117 73 233 225 174 103 108 91 79 65 106 114 111 122 118 122 116 283
336 339 337 337 337 188 165 162 159 158 155 147 131 123 103 59 107 188 242 345 34 87 116 109 147 188 21 82 81 56 5 77 324 92 80 79 101 225 204 159 160 171 164 153 99 87 81 109 154 154 156 236 230 264
340 340 341 340 340 269 158 157 163 154 143 136 124 77 87 98 101 47 8 29 22 351 50 105 110 130 106 105 70 100 20 90 126 182 3 202 247 253 207 177 141 165 149 143 124 149 148 90 161 164 199 228 227 233
341 339 341 343 341 338 157 158 164 146 142 121 112 102 79 71 68 43 72 98 94 25 150 147 140 123 351 120 124 13 163 47 108 259 186 268 270 246 231 252 191 149 146 151 123 125 126 119 136 170 252 231 233 232
340 337 344 346 343 336 166 158 166 154 135 141 116 107 114 70 58 104 169 76 180 213 199 140 149 119 108 91 92 339 108 50 214 143 168 269 251 247 101 127 145 155 153 143 138 128 129 144 171 186 227 261 255 243
337 337 343 350 344 341 189 162 163 125 121 78 63 88 128 116 151 176 180 198 197 170 180 155 123 121 110 66 76 92 115 204 105 143 239 226 246 227 174 127 116 130 135 128 121 125 150 158 158 172 246 246 241 235
334 340 343 352 348 354 306 139 135 109 68 92 137 131 185 183 213 181 183 175 209 134 141 134 105 120 122 101 137 143 105 136 176 217 231 231 201 178 172 163 136 161 156 155 164 168 196 229 264 253 235 235 221 230
334 346 347 341 349 22 9 70 109 58 60 119 140 173 174 142 94 192 175 135 157 146 134 112 71 86 87 115 143 118 164 214 214 225 229 206 175 154 160 165 167 163 170 180 178 191 210 214 236 273 252 231 216 204
339 0 343 355 1 11 20 7 47 79 68 117 96 99 107 75 132 158 144 141 231 136 84 58 109 83 156 137 157 203 159 219 243 216 226 131 143 158 164 170 167 149 158 186 199 207 202 200 220 251 293 257 232 203
1 25 341 37 18 4 18 48 31 77 135 124 126 81 105 118 136 134 151 136 127 150 97 116 103 172 106 126 207 197 203 222 216 224 164 152 161 170 149 139 141 158 187 205 198 192 181 108 113 83 310 307 221 189
328 329 11 19 4 7 6 19 48 76 117 106 140 139 141 99 125 138 127 142 118 99 113 156 122 136 174 173 225 233 219 258 245 109 125 99 100 129 174 155 178 255 306 356 104 138 111 95 79 301 257 144 98 96
284 317 43 31 12 4 353 22 17 58 48 86 94 90 97 103 59 111 98 70 88 103 109 63 103 174 217 217 199 239 237 198 115 91 87 96 122 81 40 20 11 5 28 145 174 144 91 120 97 93 106 113 98 98
44 61 43 22 25 351 335 35 354 58 73 87 90 82 64 74 106 112 101 74 96 98 79 104 150 183 153 224 192 136 130 112 86 64 23 359 11 39 347 268 268 327 113 93 61 96 73 75 54 74 93 101 107 93
41 14 18 10 19 8 354 16 31 30 55 69 81 91 79 55 111 130 114 182 70 114 117 180 152 144 72 92 93 97 95 89 115 139 155 157 360 56 25 13 140 146 122 128 127 95 88 89 100 79 81 77 76 82
1 26 3 5 6 346 48 16 13 2 42 71 65 52 96 99 112 104 125 83 112 111 103 144 161 145 101 91 73 58 86 94 87 78 73 110 123 38 314 196 127 102 72 105 113 116 101 100 90 84 89 74 62 30
72 5 14 24 0 26 359 347 50 1 51 52 49 66 39 56 51 154 83 83 92 42 65 70 61 19 110 102 88 61 49 82 98 89 69 85 87 79 87 81 84 117 99 25 90 111 114 109 99 91 78 64 50 34
29 46 38 58 22 10 349 19 18 30 28 29 51 66 35 26 359 44 65 70 87 87 67 79 165 104 57 50 59 45 24 52 86 65 53 103 100 60 59 64 65 59 86 110 91 88 82 85 100 88 71 69 35 16
67 329 74 344 332 57 23 13 10 31 76 41 70 54 27 335 79 87 145 341 43 28 13 5 33 45 100 76 97 86 24 39 109 116 23 50 109 94 63 62 59 48 56 105 103 106 100 93 87 86 68 42 357 6
73 290 108 199 298 85 21 48 21 37 49 70 58 53 330 82 80 194 172 98 93 108 30 96 115 76 65 63 126 124 26 346 349 97 45 34 104 134 140 125 105 33 15 108 122 121 116 112 97 86 53 6 358 9
96 276 271 76 114 97 45 15 19 87 93 128 155 100 69 94 203 172 158 30 78 53 37 39 69 102 123 112 98 70 50 40 73 99 86 57 41 59 119 140 145 144 110 102 106 119 129 124 118 114 343 306 251 262
188 180 160 188 65 28 128 64 128 185 209 205 106 135 160 176 187 115 76 44 59 63 52 24 36 64 89 82 66 95 77 67 81 87 88 58 43 39 59 85 110 120 109 108 106 105 110 143 164 199 312 313 294 280
192 195 105 156 65 3 202 172 210 232 137 140 143 188 217 48 35 66 80 75 116 158 131 124 60 44 72 71 61 64 76 84 92 97 103 110 81 28 4 75 75 68 60 54 79 99 154 143 189 125 145 282 276 275
224 142 99 141 166 208 242 175 216 228 84 108 111 86 68 53 47 350 5 36 122 161 176 149 127 104 133 115 106 66 21 34 84 135 146 170 173 144 123 103 97 85 75 77 69 21 49 46 29 23 2 319 313 302
106 91 72 111 210 264 244 322 1 49 42 54 4 98 143 208 340 53 71 43 105 108 108 107 91 132 130 128 121 111 50 333 56 128 115 109 122 123 118 108 109 119 104 99 87 79 52 34 4 318 334 337 321 340
184 187 137 149 269 298 0 58 48 62 3 52 3 54 28 48 17 326 338 35 50 78 160 140 124 155 163 131 116 157 112 121 81 91 108 117 118 124 127 126 122 110 101 94 90 92 121 307 322 335 320 314 320 318
66 75 78 109 67 357 296 90 34 40 30 45 9 12 114 77 207 260 312 27 175 159 112 103 94 83 81 76 76 91 85 7 168 174 151 143 143 140 124 121 124 119 112 108 337 292 319 327 304 310 314 314 305 299